Location: Unspecified
(0.0000°N, 0.0000°E)
Time: 05:07:43
(UTC+00:00)

CANX-2 - Pass Details

Date: 26 May 2026
Orbit: 542 x 558 km, 97.9° (Epoch: 11 June)

Event Time Altitude Azimuth Distance (km) Brightness Sun altitude
Rises 04:26:19 0° 357° (N) 2,687 ? -21.1°
Reaches altitude 10° 04:28:32 10° 347° (NNW) 1,800 ? -20.6°
Enters shadow 04:31:09 30° 312° (NW) 993 ? -20.0°
